Location: Mahannah Oil Field
(37.4664°N, 96.6003°W)
Time: 18:51:30
(UTC+00:00)

Transit 2A Rocket - Pass Details

Date: 26 January 2021
Orbit: 594 x 908 km, 66.7° (Epoch: 07 March)

Event Time Altitude Azimuth Distance (km) Brightness Sun altitude
Rises 17:49:03 0° 210° (SSW) 3,387 8.9 32.8°
Reaches altitude 10° 17:51:36 10° 211° (SSW) 2,412 8.3 32.9°
Maximum altitude 17:57:09 78° 298° (WNW) 791 5.5 33.2°
Drops below altitude 10° 18:02:14 10° 25° (NNE) 2,214 7.1 33.3°
Sets 18:04:29 0° 27° (NNE) 3,088 7.7 33.4°
